Simultaneous Nadir Overpasses (SNOs) Predictions

Prediction of SNOs between AURA and NPP Satellite Orbit:

Table of predicted SNOs for the next 14.0 days since TLE Epoch: 11/16/2019
Index Date (AURA) Time (AURA) Lat,Lon (AURA) SZA (AURA ) Date (NPP) Time (NPP) Lat,Lon (NPP) SZA (NPP ) Distance(km) Time Diff (sec)
1 11/17/2019 11:24:54 79.60, -93.79 110.24 11/17/2019 11:24:41 79.61, -93.68 110.23 2.53 13
2 11/17/2019 12:14:17 -79.75, 74.97 69.97 11/17/2019 12:15:22 -79.74, 74.83 69.99 2.81 65
3 11/20/2019 02:52:03 -79.42,-146.83 68.88 11/20/2019 02:50:56 -79.42,-146.75 68.84 1.79 67
4 11/20/2019 03:41:23 79.64, 22.37 110.84 11/20/2019 03:41:34 79.64, 22.34 110.83 0.58 11
5 11/22/2019 19:08:31 -79.45, -30.70 68.32 11/22/2019 19:07:48 -79.45, -30.73 68.28 0.72 43
6 11/22/2019 19:57:51 79.67, 138.49 111.40 11/22/2019 19:58:26 79.66, 138.34 111.40 3.14 35
7 11/25/2019 11:24:59 -79.52, 85.66 67.84 11/25/2019 11:24:40 -79.51, 85.54 67.80 2.64 19
8 11/25/2019 12:14:17 79.81,-104.59 111.78 11/25/2019 12:15:15 79.81,-104.52 111.72 1.28 58
9 11/28/2019 02:52:05 79.38, 32.95 112.88 11/28/2019 02:50:52 79.39, 32.99 112.92 0.93 73




NCC Satellite Simultaneous Nadir Overpasses (SNOs) Prediction Service
